[[{"header":{"parameterUnit":"m.s-1","parameterCategory":2,"la1":30.2992,"la2":30.254,"lo1":-89.0895,"lo2":-89.0443,"dy":0.0025,"dx":0.0025,"nx":19,"ny":19,"refTime":"2026-04-09T03:00:00:Z","depth":"0","parameterNumber":2,"parameterNumberName":"U-component_of_CURRENTS"},"data":[0,0,0,-0.1519,-0.152,-0.1532,-0.1532,-0.1515,-0.1514,0,0,0,0,0,0,0,0,0,0,0,-0.151,-0.1511,-0.1519,-0.152,-0.1532,-0.1532,-0.1515,-0.1514,0,0,0,0,0,0,0,0,0,0,0,-0.151,-0.1511,-0.1511,-0.152,-0.1532,-0.1532,-0.1515,-0.1512,0,0,0,0,0,0,0,0,0,0,-0.1504,-0.1498,-0.151,-0.1511,-0.152,-0.1532,-0.1532,-0.1513,-0.1512,-0.1502,0,-0.1505,0,-0.1513,-0.1513,-0.1513,0,0,0,-0.1514,-0.1498,-0.1508,-0.1511,-0.152,-0.1532,-0.1525,-0.1513,-0.1513,-0.1502,-0.1505,-0.1505,-0.1513,-0.1513,-0.1513,-0.153,-0.153,0,0,-0.1514,-0.1505,-0.1508,-0.1508,-0.1525,-0.1524,-0.1525,-0.1513,-0.1508,-0.1505,-0.1505,-0.1513,-0.1513,-0.1513,-0.1529,-0.153,0,0,0,-0.1516,-0.1504,-0.1515,-0.1508,-0.1515,-0.1525,-0.1526,-0.1509,-0.1514,-0.1504,-0.1513,-0.1513,-0.1512,-0.1529,-0.153,-0.1561,0,0,0,-0.1515,-0.1506,-0.1515,-0.1508,-0.1516,-0.1516,-0.1522,-0.1515,-0.1514,-0.1513,-0.1513,-0.1512,-0.1529,-0.1529,-0.1559,-0.1564,0,0,0,-0.151,-0.1505,-0.1509,-0.1508,-0.1518,-0.1516,-0.1521,-0.1515,-0.1519,-0.1513,-0.1512,-0.1528,-0.1529,-0.1558,-0.1561,-0.1553,0,0,0,-0.1497,-0.151,-0.1509,-0.1529,-0.1518,-0.155,-0.1521,-0.1533,-0.1531,-0.1513,-0.1529,-0.153,-0.1557,-0.156,-0.1552,-0.1482,-0.1481,0,0,-0.151,-0.1511,-0.1527,-0.1527,-0.1562,-0.1548,-0.1578,-0.1557,-0.1539,-0.1528,-0.1529,-0.156,-0.1561,-0.1553,-0.1529,-0.1526,0,0,0,-0.153,-0.1536,-0.1549,-0.1566,-0.1588,-0.1598,-0.1589,-0.1581,-0.1572,-0.1543,-0.1568,-0.1567,-0.1561,-0.1517,-0.1515,-0.1504,-0.1533,-0.1533,-0.1533,-0.1511,-0.1539,-0.1564,-0.1595,-0.1616,-0.1631,-0.1636,-0.1622,-0.1604,-0.1606,-0.1599,-0.1622,-0.1577,-0.1575,-0.1565,-0.1611,-0.1611,-0.1611,-0.1611,-0.1518,-0.1526,-0.1566,-0.1599,-0.1624,-0.1645,-0.1664,-0.1656,-0.165,-0.1636,-0.1628,-0.156,-0.1574,-0.1565,-0.1613,-0.1613,-0.1613,-0.1613,-0.1612,-0.1488,-0.1496,-0.1524,-0.1568,-0.1604,-0.1641,-0.1656,-0.1676,-0.1666,-0.167,-0.1596,-0.1594,-0.1577,-0.1658,-0.1658,-0.1658,-0.1658,-0.1658,-0.1658,-0.1433,-0.1466,-0.1475,-0.1536,-0.1554,-0.1597,-0.1646,-0.1648,-0.1633,-0.1616,-0.1615,-0.1583,-0.1636,-0.1624,-0.1658,-0.1658,-0.1658,-0.1658,-0.1658,-0.137,-0.1391,-0.1403,-0.1421,-0.1478,-0.1483,-0.1565,-0.1563,-0.1574,-0.1547,-0.1531,-0.158,-0.1554,-0.1555,-0.1541,-0.1552,-0.1552,-0.1552,-0.1552,-0.1306,-0.1329,-0.1314,-0.1327,-0.1361,-0.1418,-0.1385,-0.142,-0.1451,-0.1443,-0.1484,-0.1466,-0.1471,-0.1441,-0.1444,-0.1428,-0.141,-0.141,-0.141,-0.1239,-0.1261,-0.1217,-0.126,-0.1296,-0.1319,-0.1262,-0.1279,-0.1349,-0.1407,-0.1487,-0.1493,-0.1472,-0.1481,-0.1437,-0.1442,-0.1416,0,0]},{"header":{"parameterUnit":"m.s-1","parameterCategory":2,"la1":30.2992,"la2":30.254,"lo1":-89.0895,"lo2":-89.0443,"dy":0.0025,"dx":0.0025,"nx":19,"ny":19,"refTime":"2026-04-09T03:00:00:Z","depth":"0","parameterNumber":3,"parameterNumberName":"V-component_of_CURRENTS"},"data":[0,0,0,-0.0229,-0.0228,-0.0166,-0.0166,-0.0066,-0.0065,0,0,0,0,0,0,0,0,0,0,0,-0.0252,-0.0252,-0.0229,-0.0228,-0.0166,-0.0166,-0.0066,-0.0065,0,0,0,0,0,0,0,0,0,0,0,-0.0253,-0.0252,-0.0252,-0.0228,-0.0167,-0.0166,-0.0066,-0.0115,0,0,0,0,0,0,0,0,0,0,-0.0176,-0.0208,-0.0252,-0.0252,-0.0227,-0.0167,-0.0166,-0.0118,-0.0112,-0.009,0,-0.009,0,-0.0078,-0.0058,-0.0058,0,0,0,-0.0217,-0.0213,-0.0195,-0.0252,-0.0227,-0.0167,-0.0191,-0.0115,-0.0108,-0.0083,-0.0088,-0.0084,-0.0076,-0.0058,-0.0057,0.0011,0.0011,0,0,-0.0221,-0.0239,-0.02,-0.0191,-0.0222,-0.0193,-0.0189,-0.0111,-0.0109,-0.0088,-0.0082,-0.0074,-0.0057,-0.0056,0.0011,0.0011,0,0,0,-0.0237,-0.0241,-0.0225,-0.0196,-0.0188,-0.0192,-0.0187,-0.0113,-0.0107,-0.0081,-0.0073,-0.0057,-0.0056,0.0011,0.0011,-0.0032,0,0,0,-0.0239,-0.0252,-0.0227,-0.0236,-0.019,-0.0153,-0.0191,-0.0113,-0.0104,-0.0074,-0.0057,-0.0055,0.0011,0.0011,-0.0031,-0.0058,0,0,0,-0.0253,-0.0253,-0.0249,-0.0238,-0.0215,-0.0154,-0.0144,-0.011,-0.0099,-0.0058,-0.0054,0.0011,0.0011,-0.003,-0.0056,-0.0025,0,0,0,-0.0269,-0.0282,-0.025,-0.0258,-0.0216,-0.0186,-0.0144,-0.0115,-0.0085,-0.0056,0.0011,0.0011,-0.003,-0.0054,-0.0024,0.0026,0.0027,0,0,-0.0297,-0.0286,-0.029,-0.026,-0.0252,-0.0193,-0.017,-0.0113,-0.0073,-0.0012,-0.001,-0.0031,-0.0055,-0.0025,0.0032,0.0034,0,0,0,-0.0306,-0.0314,-0.0304,-0.029,-0.0251,-0.0211,-0.0151,-0.0115,-0.006,-0.0055,-0.0017,-0.003,-0.001,0.0022,0.0023,0.016,0.0011,0.0011,0.0011,-0.0369,-0.0345,-0.0353,-0.032,-0.0292,-0.0218,-0.0177,-0.0113,-0.0076,-0.0057,-0.0055,-0.0049,-0.0016,-0.0014,0.0126,-0.0037,-0.0038,-0.0038,-0.0038,-0.0424,-0.0434,-0.0393,-0.0395,-0.0335,-0.0303,-0.0199,-0.0158,-0.0087,-0.0072,-0.0049,-0.0012,-0.0015,0.0134,-0.004,-0.004,-0.0039,-0.0039,-0.0039,-0.0475,-0.0478,-0.0472,-0.0465,-0.0431,-0.0356,-0.0296,-0.0218,-0.0132,-0.0112,-0.0036,-0.0034,0.0091,-0.009,-0.009,-0.009,-0.009,-0.009,-0.009,-0.0533,-0.0526,-0.0552,-0.0535,-0.0527,-0.0479,-0.0354,-0.028,-0.0149,-0.0076,-0.0074,0.0117,-0.0063,-0.0069,-0.0089,-0.0089,-0.009,-0.009,-0.009,-0.0599,-0.0597,-0.0641,-0.0647,-0.0622,-0.0578,-0.0452,-0.0255,-0.016,-0.0081,0.0164,-0.0031,-0.0004,-0.0003,-0.0006,-0.0009,-0.0009,-0.0009,-0.0009,-0.0644,-0.0646,-0.0707,-0.0727,-0.0712,-0.0622,-0.0472,-0.024,0.0072,0.0239,0.0274,0.0308,0.0299,0.0346,0.0339,0.0344,0.043,0.0431,0.0431,-0.0684,-0.0702,-0.0749,-0.0766,-0.0751,-0.0657,-0.049,-0.0181,0.0276,0.0462,0.0456,0.0437,0.0498,0.0472,0.0553,0.0532,0.0543,0,0]}],[{"header":{"parameterUnit":"m.s-1","parameterCategory":2,"la1":30.2992,"la2":30.254,"lo1":-89.0895,"lo2":-89.0443,"dy":0.0025,"dx":0.0025,"nx":19,"ny":19,"refTime":"2026-04-09T03:00:00:Z","depth":"2","parameterNumber":2,"parameterNumberName":"U-component_of_CURRENTS"},"data":[0,0,0,-0.1327,-0.1328,-0.135,-0.135,-0.1337,-0.1337,0,0,0,0,0,0,0,0,0,0,0,-0.1316,-0.1316,-0.1327,-0.1328,-0.135,-0.135,-0.1337,-0.1337,0,0,0,0,0,0,0,0,0,0,0,-0.1316,-0.1316,-0.1316,-0.1328,-0.135,-0.135,-0.1337,-0.1329,0,0,0,0,0,0,0,0,0,0,-0.1312,-0.1306,-0.1316,-0.1316,-0.1328,-0.135,-0.135,-0.1329,-0.1329,-0.1316,0,-0.1323,0,-0.1332,-0.1335,-0.1335,0,0,0,-0.1322,-0.1306,-0.1317,-0.1316,-0.1328,-0.135,-0.1339,-0.133,-0.133,-0.1316,-0.1323,-0.1323,-0.1332,-0.1335,-0.1335,-0.1351,-0.1352,0,0,-0.1321,-0.1313,-0.1317,-0.1317,-0.1338,-0.1338,-0.1339,-0.133,-0.1328,-0.1323,-0.1323,-0.1332,-0.1335,-0.1335,-0.1351,-0.1351,0,0,0,-0.1321,-0.1312,-0.1324,-0.1317,-0.1327,-0.1339,-0.134,-0.1328,-0.1334,-0.1323,-0.1332,-0.1335,-0.1335,-0.1351,-0.1351,-0.1385,0,0,0,-0.132,-0.1313,-0.1324,-0.1318,-0.1327,-0.1333,-0.1338,-0.1334,-0.1334,-0.1332,-0.1335,-0.1334,-0.135,-0.1351,-0.1384,-0.1388,0,0,0,-0.1314,-0.1312,-0.1317,-0.1318,-0.1332,-0.1334,-0.1339,-0.1335,-0.134,-0.1335,-0.1334,-0.135,-0.1351,-0.1382,-0.1386,-0.1379,0,0,0,-0.1302,-0.1316,-0.1317,-0.1339,-0.1331,-0.1364,-0.1339,-0.1354,-0.1354,-0.1335,-0.135,-0.1351,-0.1382,-0.1385,-0.1378,-0.13,-0.1298,0,0,-0.1315,-0.1317,-0.1333,-0.1335,-0.137,-0.1361,-0.1391,-0.1376,-0.136,-0.1348,-0.1349,-0.1384,-0.1386,-0.1378,-0.1346,-0.1343,0,0,0,-0.1335,-0.1342,-0.1355,-0.1375,-0.1397,-0.1409,-0.1405,-0.1399,-0.1395,-0.1365,-0.1391,-0.1391,-0.1385,-0.1336,-0.1334,-0.1355,-0.1355,-0.1355,-0.1355,-0.1321,-0.1348,-0.1372,-0.1402,-0.1424,-0.1442,-0.1449,-0.1439,-0.1424,-0.1429,-0.1424,-0.1449,-0.1399,-0.1396,-0.1436,-0.1436,-0.1436,-0.1436,-0.1436,-0.133,-0.1338,-0.1377,-0.1409,-0.1436,-0.146,-0.1479,-0.1475,-0.1473,-0.146,-0.1453,-0.1382,-0.1395,-0.1439,-0.1438,-0.1438,-0.1438,-0.1437,-0.1437,-0.1304,-0.1312,-0.1341,-0.1385,-0.1423,-0.1461,-0.1478,-0.1499,-0.1492,-0.1498,-0.142,-0.1418,-0.145,-0.1489,-0.1489,-0.1489,-0.1489,-0.1489,-0.1489,-0.1255,-0.1287,-0.1299,-0.1359,-0.138,-0.1423,-0.1473,-0.1475,-0.1459,-0.1441,-0.144,-0.1466,-0.1464,-0.1453,-0.1489,-0.1489,-0.1489,-0.1489,-0.1489,-0.1198,-0.122,-0.1234,-0.1254,-0.1309,-0.1309,-0.1393,-0.1387,-0.1398,-0.1369,-0.14,-0.1403,-0.1375,-0.1376,-0.1362,-0.1373,-0.1373,-0.1373,-0.1373,-0.1139,-0.1161,-0.1152,-0.1164,-0.1195,-0.1244,-0.1193,-0.119,-0.1232,-0.1216,-0.1223,-0.1197,-0.1205,-0.1167,-0.1172,-0.1154,-0.111,-0.111,-0.1109,-0.1077,-0.1099,-0.106,-0.11,-0.1131,-0.1143,-0.1049,-0.0958,-0.0971,-0.1099,-0.1177,-0.1355,-0.1335,-0.1341,-0.1296,-0.1299,-0.1275,0,0]},{"header":{"parameterUnit":"m.s-1","parameterCategory":2,"la1":30.2992,"la2":30.254,"lo1":-89.0895,"lo2":-89.0443,"dy":0.0025,"dx":0.0025,"nx":19,"ny":19,"refTime":"2026-04-09T03:00:00:Z","depth":"2","parameterNumber":3,"parameterNumberName":"V-component_of_CURRENTS"},"data":[0,0,0,-0.0246,-0.0245,-0.0185,-0.0185,-0.0087,-0.0087,0,0,0,0,0,0,0,0,0,0,0,-0.0269,-0.0269,-0.0246,-0.0245,-0.0186,-0.0185,-0.0088,-0.0087,0,0,0,0,0,0,0,0,0,0,0,-0.0269,-0.0269,-0.0269,-0.0245,-0.0186,-0.0185,-0.0088,-0.0136,0,0,0,0,0,0,0,0,0,0,-0.0195,-0.0226,-0.0269,-0.0269,-0.0245,-0.0186,-0.0185,-0.0138,-0.0133,-0.0112,0,-0.0111,0,-0.0099,-0.0081,-0.008,0,0,0,-0.0235,-0.0231,-0.0213,-0.0269,-0.0244,-0.0186,-0.0209,-0.0135,-0.0129,-0.0104,-0.0109,-0.0106,-0.0098,-0.008,-0.0079,-0.0012,-0.0012,0,0,-0.0238,-0.0255,-0.0217,-0.021,-0.0239,-0.0211,-0.0208,-0.0131,-0.013,-0.0109,-0.0103,-0.0096,-0.0079,-0.0079,-0.0012,-0.0012,0,0,0,-0.0254,-0.0258,-0.0242,-0.0214,-0.0206,-0.021,-0.0206,-0.0133,-0.0128,-0.0102,-0.0095,-0.0079,-0.0078,-0.0012,-0.0012,-0.0055,0,0,0,-0.0256,-0.0268,-0.0244,-0.0253,-0.0208,-0.0173,-0.0209,-0.0133,-0.0124,-0.0095,-0.0079,-0.0077,-0.0012,-0.0012,-0.0054,-0.0081,0,0,0,-0.027,-0.0269,-0.0266,-0.0254,-0.0233,-0.0174,-0.0164,-0.0131,-0.012,-0.008,-0.0077,-0.0012,-0.0012,-0.0053,-0.0079,-0.0049,0,0,0,-0.0285,-0.0297,-0.0266,-0.0274,-0.0234,-0.0204,-0.0164,-0.0135,-0.0106,-0.0078,-0.0012,-0.0012,-0.0053,-0.0077,-0.0049,-0.0005,-0.0004,0,0,-0.0312,-0.0301,-0.0305,-0.0276,-0.0268,-0.0211,-0.0188,-0.0134,-0.0094,-0.0034,-0.0032,-0.0054,-0.0078,-0.0049,0.0003,0.0003,0,0,0,-0.0321,-0.0328,-0.0318,-0.0305,-0.0267,-0.0228,-0.017,-0.0135,-0.0081,-0.0077,-0.0039,-0.0053,-0.0033,-0.0005,-0.0005,-0.0012,-0.0012,-0.0012,-0.0012,-0.0381,-0.0358,-0.0366,-0.0334,-0.0307,-0.0235,-0.0195,-0.0134,-0.0097,-0.0078,-0.0077,-0.0071,-0.0042,-0.0041,-0.0059,-0.0059,-0.0059,-0.0059,-0.0059,-0.0435,-0.0443,-0.0405,-0.0407,-0.0348,-0.0317,-0.0217,-0.0177,-0.0109,-0.0093,-0.0071,-0.0039,-0.0043,-0.0062,-0.0062,-0.0061,-0.0061,-0.0061,-0.0061,-0.0484,-0.0486,-0.0481,-0.0474,-0.0442,-0.0369,-0.0313,-0.0237,-0.0153,-0.0135,-0.0063,-0.0062,-0.0091,-0.0113,-0.0113,-0.0113,-0.0113,-0.0113,-0.0113,-0.054,-0.0533,-0.0559,-0.0543,-0.0536,-0.0489,-0.037,-0.0299,-0.0174,-0.0104,-0.0103,-0.0088,-0.0086,-0.0092,-0.0113,-0.0113,-0.0113,-0.0113,-0.0113,-0.0603,-0.0601,-0.0645,-0.0652,-0.0628,-0.0587,-0.0466,-0.028,-0.0189,-0.0114,-0.0062,-0.0063,-0.0037,-0.0036,-0.004,-0.0045,-0.0045,-0.0045,-0.0045,-0.0648,-0.0649,-0.0709,-0.0729,-0.0717,-0.0631,-0.0492,-0.0286,-0.0107,-0.0025,-0.0026,-0.0018,-0.002,0.0007,0.0007,0.0005,0.0011,0.0011,0.001,-0.0686,-0.0704,-0.075,-0.0767,-0.0755,-0.0665,-0.0515,-0.0263,-0.0032,0.001,-0.0048,-0.0035,-0.0026,-0.0029,0.0013,0.0012,0.0009,0,0]}],[{"header":{"parameterUnit":"m.s-1","parameterCategory":2,"la1":30.2992,"la2":30.254,"lo1":-89.0895,"lo2":-89.0443,"dy":0.0025,"dx":0.0025,"nx":19,"ny":19,"refTime":"2026-04-09T03:00:00:Z","depth":"4","parameterNumber":2,"parameterNumberName":"U-component_of_CURRENTS"},"data":[0,0,0,-0.0838,-0.084,-0.0923,-0.0923,-0.096,-0.096,0,0,0,0,0,0,0,0,0,0,0,-0.0811,-0.0812,-0.0838,-0.084,-0.0923,-0.0923,-0.096,-0.096,0,0,0,0,0,0,0,0,0,0,0,-0.0811,-0.0811,-0.0812,-0.084,-0.0923,-0.0923,-0.096,-0.0914,0,0,0,0,0,0,0,0,0,0,-0.0842,-0.0827,-0.0811,-0.0812,-0.0841,-0.0923,-0.0923,-0.0912,-0.0917,-0.0903,0,-0.0923,0,-0.0941,-0.0961,-0.0961,0,0,0,-0.0838,-0.0824,-0.0847,-0.0813,-0.0842,-0.0923,-0.0885,-0.0915,-0.092,-0.0908,-0.0924,-0.0926,-0.0942,-0.0961,-0.0961,-0.1003,-0.1003,0,0,-0.0833,-0.0823,-0.0844,-0.085,-0.0871,-0.0882,-0.0887,-0.0919,-0.0925,-0.0924,-0.0927,-0.0943,-0.0961,-0.0961,-0.1002,-0.1003,0,0,0,-0.0822,-0.082,-0.0843,-0.0848,-0.0868,-0.0885,-0.0891,-0.0924,-0.0932,-0.0928,-0.0943,-0.0961,-0.0961,-0.1002,-0.1003,-0.1036,0,0,0,-0.0819,-0.0813,-0.0841,-0.0835,-0.0868,-0.0907,-0.0895,-0.093,-0.0935,-0.0943,-0.0961,-0.0962,-0.1002,-0.1002,-0.1034,-0.1038,0,0,0,-0.0806,-0.0811,-0.0824,-0.0834,-0.0871,-0.0907,-0.0918,-0.0932,-0.0944,-0.0961,-0.0962,-0.1001,-0.1002,-0.1033,-0.1036,-0.1033,0,0,0,-0.0787,-0.0811,-0.0824,-0.0859,-0.0871,-0.0926,-0.0918,-0.0958,-0.0977,-0.0961,-0.1002,-0.1003,-0.1032,-0.1035,-0.1032,-0.09,0,0,0,-0.0804,-0.0813,-0.0834,-0.0848,-0.09,-0.0914,-0.0965,-0.0985,-0.0982,-0.0985,-0.0987,-0.1035,-0.1036,-0.1033,-0.0949,0,0,0,0,-0.0831,-0.0845,-0.0865,-0.0901,-0.0939,-0.0975,-0.1,-0.1007,-0.103,-0.0998,-0.1042,-0.1041,-0.1038,-0.0959,-0.1006,-0.1006,-0.1006,-0.1006,-0.1006,-0.0822,-0.0854,-0.0891,-0.0935,-0.0972,-0.102,-0.1045,-0.1057,-0.1054,-0.1071,-0.1075,-0.1102,-0.1021,-0.1086,-0.1086,-0.1086,-0.1087,-0.1087,-0.1087,-0.0834,-0.0849,-0.0904,-0.0953,-0.1,-0.1045,-0.1086,-0.1096,-0.1114,-0.1109,-0.1104,-0.1008,-0.109,-0.109,-0.1089,-0.1089,-0.1088,-0.1088,-0.1088,-0.0808,-0.0819,-0.0867,-0.0936,-0.1,-0.106,-0.109,-0.1128,-0.1136,-0.1146,-0.1045,-0.1115,-0.1104,-0.1144,-0.1144,-0.1144,-0.1144,-0.1144,-0.1144,-0.075,-0.0798,-0.0831,-0.0917,-0.0958,-0.1022,-0.1094,-0.1098,-0.1126,-0.106,-0.1152,-0.112,-0.1118,-0.1107,-0.1144,-0.1144,-0.1144,-0.1144,-0.1144,-0.0692,-0.0726,-0.0763,-0.0807,-0.0894,-0.0931,-0.103,-0.1019,-0.1008,-0.0968,-0.1005,-0.1012,-0.098,-0.0981,-0.0963,-0.0959,-0.0958,-0.0956,0,-0.0635,-0.0661,-0.0689,-0.0726,-0.0763,-0.0862,-0.0834,-0.0866,-0.0886,-0.0858,-0.0988,-0.103,-0.1034,-0.0998,-0.0997,-0.0975,0,0,0,-0.058,-0.0607,-0.0595,-0.0659,-0.0693,-0.0738,-0.0819,-0.0789,-0.0903,-0.0856,-0.0916,-0.0927,-0.106,-0.1145,-0.1112,-0.111,-0.1089,0,0]},{"header":{"parameterUnit":"m.s-1","parameterCategory":2,"la1":30.2992,"la2":30.254,"lo1":-89.0895,"lo2":-89.0443,"dy":0.0025,"dx":0.0025,"nx":19,"ny":19,"refTime":"2026-04-09T03:00:00:Z","depth":"4","parameterNumber":3,"parameterNumberName":"V-component_of_CURRENTS"},"data":[0,0,0,-0.0198,-0.0198,-0.0161,-0.0161,-0.0085,-0.0084,0,0,0,0,0,0,0,0,0,0,0,-0.0212,-0.0212,-0.0198,-0.0198,-0.0162,-0.0161,-0.0085,-0.0084,0,0,0,0,0,0,0,0,0,0,0,-0.0212,-0.0212,-0.0212,-0.0198,-0.0162,-0.0161,-0.0085,-0.0118,0,0,0,0,0,0,0,0,0,0,-0.0156,-0.0179,-0.0212,-0.0212,-0.0197,-0.0162,-0.0161,-0.0119,-0.0115,-0.0095,0,-0.0098,0,-0.0092,-0.0079,-0.0079,0,0,0,-0.0188,-0.0183,-0.0171,-0.0212,-0.0197,-0.0162,-0.0175,-0.0117,-0.0113,-0.009,-0.0097,-0.0094,-0.009,-0.0079,-0.0078,-0.0021,-0.0021,0,0,-0.019,-0.0203,-0.0174,-0.0169,-0.0197,-0.0176,-0.0174,-0.0115,-0.0115,-0.0096,-0.0092,-0.0089,-0.0078,-0.0078,-0.0021,-0.0021,0,0,0,-0.0202,-0.0205,-0.0195,-0.0172,-0.0169,-0.0176,-0.0173,-0.0117,-0.0114,-0.0091,-0.0088,-0.0078,-0.0077,-0.0021,-0.0021,-0.0061,0,0,0,-0.0203,-0.0213,-0.0196,-0.0203,-0.0171,-0.0148,-0.0177,-0.0118,-0.0111,-0.0089,-0.0078,-0.0076,-0.0021,-0.0021,-0.006,-0.0086,0,0,0,-0.0212,-0.0213,-0.0212,-0.0204,-0.0192,-0.0149,-0.0142,-0.0116,-0.0109,-0.0079,-0.0076,-0.0021,-0.0021,-0.0059,-0.0084,-0.0062,0,0,0,-0.0222,-0.0234,-0.0212,-0.0222,-0.0193,-0.0174,-0.0142,-0.0123,-0.01,-0.0077,-0.0021,-0.0021,-0.0059,-0.0083,-0.0061,-0.0075,0,0,0,-0.0244,-0.0237,-0.0242,-0.0222,-0.0221,-0.0178,-0.0163,-0.0122,-0.0088,-0.0037,-0.0036,-0.006,-0.0084,-0.0062,-0.0064,0,0,0,0,-0.0253,-0.026,-0.0255,-0.0249,-0.0222,-0.0196,-0.0152,-0.0124,-0.0081,-0.0075,-0.0045,-0.0059,-0.0044,-0.0049,-0.002,-0.002,-0.002,-0.002,-0.002,-0.03,-0.0285,-0.0295,-0.0274,-0.0256,-0.0204,-0.0176,-0.0126,-0.0094,-0.0079,-0.008,-0.0078,-0.0085,-0.0062,-0.0062,-0.0062,-0.0062,-0.0062,-0.0062,-0.0342,-0.0349,-0.0327,-0.0335,-0.0296,-0.0275,-0.0198,-0.0166,-0.0112,-0.0096,-0.0079,-0.0078,-0.0066,-0.0065,-0.0065,-0.0064,-0.0064,-0.0064,-0.0064,-0.0375,-0.0377,-0.0383,-0.039,-0.0375,-0.0323,-0.0283,-0.0222,-0.0153,-0.014,-0.0112,-0.0092,-0.0099,-0.0121,-0.0121,-0.0121,-0.0121,-0.0121,-0.0121,-0.0408,-0.0412,-0.0443,-0.0445,-0.045,-0.0422,-0.0335,-0.0279,-0.02,-0.0158,-0.0146,-0.0097,-0.0095,-0.0101,-0.0121,-0.0121,-0.0121,-0.0121,-0.0121,-0.0443,-0.0453,-0.0499,-0.0518,-0.0522,-0.0493,-0.0416,-0.0286,-0.0228,-0.017,-0.0147,-0.0146,-0.0126,-0.0123,-0.013,-0.0159,-0.016,-0.016,0,-0.0469,-0.0476,-0.054,-0.0573,-0.0573,-0.0526,-0.0436,-0.0348,-0.0244,-0.0252,-0.0239,-0.022,-0.0216,-0.0201,-0.0198,-0.0211,0,0,0,-0.049,-0.0511,-0.0555,-0.059,-0.0592,-0.0482,-0.0407,-0.036,-0.0269,-0.0192,-0.0166,-0.0164,-0.0157,-0.0122,-0.0088,-0.0086,-0.0094,0,0]}]]